FIN7AV LGSA-EFHK

Flight info

Callsign FIN7AV
Flight time N/A
Altitude 32000
Route SOKRI UB1 VELOP DCT SKP/N0455F340 UL617 TSL UM987 ATFIR DCT LOMOS DCT NARKA DCT KEKED/N0448F350 DCT PODAN/N0446F340 DCT SUTIK/N0445F350 DCT SUWGI M857 BOKSU DCT GUNTA DCT KEMET Q11 INTOR
Aircraft A321/M-SDE3FGHIRWY/LB1

Departure

Time 2026-05-06 13:30
Airport Chania International Airport (LGSA)

Arrival

Time N/A
Airport Helsinki Vantaa Airport (EFHK)
Time Latitude Longitude Altitude Speed Heading
2026-05-06 12:59 35.53871 24.14060 494 ft 0 kts 22°
2026-05-06 13:21 35.53857 24.14053 489 ft 3 kts 25°
2026-05-06 13:21 35.53838 24.14041 489 ft 3 kts 31°
2026-05-06 13:21 35.53820 24.14026 491 ft 3 kts 41°
2026-05-06 13:22 35.53805 24.14007 491 ft 3 kts 65°
2026-05-06 13:22 35.53802 24.13985 494 ft 2 kts 111°
2026-05-06 13:22 35.53804 24.13979 492 ft 0 kts 111°
2026-05-06 13:24 35.53798 24.13990 491 ft 5 kts 126°
2026-05-06 13:24 35.53758 24.13999 493 ft 7 kts 196°
2026-05-06 13:24 35.53713 24.13979 498 ft 7 kts 198°
2026-05-06 13:25 35.53670 24.14008 489 ft 10 kts 120°
2026-05-06 13:25 35.53637 24.14109 490 ft 17 kts 111°
2026-05-06 13:25 35.53588 24.14263 493 ft 20 kts 109°
2026-05-06 13:25 35.53540 24.14427 493 ft 20 kts 114°
2026-05-06 13:26 35.53481 24.14586 495 ft 21 kts 113°
2026-05-06 13:26 35.53427 24.14750 493 ft 21 kts 112°
2026-05-06 13:26 35.53374 24.14912 488 ft 21 kts 112°
2026-05-06 13:26 35.53321 24.15075 491 ft 20 kts 111°
2026-05-06 13:27 35.53270 24.15238 489 ft 20 kts 111°
2026-05-06 13:27 35.53217 24.15399 487 ft 20 kts 112°
2026-05-06 13:27 35.53164 24.15558 494 ft 20 kts 112°
2026-05-06 13:27 35.53113 24.15715 494 ft 20 kts 110°
2026-05-06 13:28 35.53065 24.15870 495 ft 19 kts 112°
2026-05-06 13:28 35.53012 24.16021 496 ft 19 kts 111°
2026-05-06 13:28 35.52964 24.16173 492 ft 19 kts 111°
2026-05-06 13:28 35.52898 24.16264 495 ft 14 kts 184°
2026-05-06 13:29 35.52807 24.16223 489 ft 14 kts 209°
2026-05-06 13:29 35.52806 24.16095 491 ft 33 kts 291°
2026-05-06 13:29 35.52992 24.15522 484 ft 111 kts 292°
2026-05-06 13:29 35.53363 24.14384 490 ft 172 kts 292°
2026-05-06 13:30 35.53846 24.12916 1008 ft 186 kts 291°
2026-05-06 13:30 35.54284 24.11431 1872 ft 183 kts 289°
2026-05-06 13:30 35.54686 24.09942 2262 ft 191 kts 288°
2026-05-06 13:30 35.55115 24.08308 2385 ft 210 kts 288°
2026-05-06 13:31 35.55595 24.06508 2494 ft 234 kts 288°
2026-05-06 13:31 35.56135 24.04521 2787 ft 252 kts 288°